| time (UTC) | temp C | wind direction | speed KPH | gust KPH | rain 1hr cm | rain 24hr cm | rain mn cm | humidity % | barometer mb |
| 20260504100143 | 5 | 280 | 0.0 | 0.0 | 0.00 | 0.00 | 0.00 | 88 | 1017.1 |
| 20260504090105 | 6 | 280 | 0.0 | 0.0 | 0.00 | 0.00 | 0.00 | 81 | 1017.4 |
| 20260504081535 | 6 | 281 | 0.0 | 0.0 | 0.00 | 0.00 | 0.00 | 80 | 1017.2 |
| 20260504081031 | 6 | 281 | 0.0 | 0.0 | 0.00 | 0.00 | 0.00 | 81 | 1017.4 |
| 20260504080528 | 6 | 281 | 0.0 | 0.0 | 0.00 | 0.00 | 0.00 | 80 | 1017.3 |
| 20260504050340 | 7 | 40 | 0.0 | 0.0 | 0.00 | 0.00 | 0.00 | 72 | 1017.8 |
| 20260504045837 | 7 | 40 | 0.0 | 1.6 | 0.00 | 0.00 | 0.00 | 72 | 1017.5 |
| 20260504045332 | 7 | 41 | 0.0 | 1.6 | 0.00 | 0.00 | 0.00 | 75 | 1017.5 |
| 20260504044830 | 6 | 41 | 0.0 | 0.0 | 0.00 | 0.00 | 0.00 | 76 | 1017.7 |
| 20260504044327 | 6 | 41 | 0.0 | 0.0 | 0.00 | 0.00 | 0.00 | 76 | 1017.8 |
| 20260504043824 | 6 | 41 | 0.0 | 0.0 | 0.00 | 0.00 | 0.00 | 77 | 1017.7 |
| 20260504043321 | 6 | 41 | 0.0 | 0.0 | 0.00 | 0.00 | 0.00 | 77 | 1017.5 |
| 20260504042819 | 6 | 41 | 0.0 | 0.0 | 0.00 | 0.00 | 0.00 | 77 | 1017.7 |
| 20260504042315 | 6 | 41 | 0.0 | 0.0 | 0.00 | 0.00 | 0.00 | 77 | 1017.8 |
| 20260504041811 | 6 | 41 | 0.0 | 0.0 | 0.00 | 0.00 | 0.00 | 77 | 1017.5 |
| 20260504041307 | 6 | 41 | 0.0 | 0.0 | 0.00 | 0.00 | 0.00 | 77 | 1017.7 |
| 20260504040804 | 6 | 41 | 0.0 | 0.0 | 0.00 | 0.00 | 0.00 | 77 | 1017.5 |
| 20260504040301 | 6 | 41 | 0.0 | 0.0 | 0.00 | 0.00 | 0.00 | 77 | 1017.7 |
| 20260504035757 | 6 | 41 | 0.0 | 0.0 | 0.00 | 0.00 | 0.00 | 77 | 1017.4 |
| 20260504035254 | 6 | 41 | 0.0 | 0.0 | 0.00 | 0.00 | 0.00 | 76 | 1017.5 |
| 20260504034751 | 6 | 41 | 0.0 | 0.0 | 0.00 | 0.00 | 0.00 | 77 | 1017.4 |
| 20260504034249 | 6 | 41 | 0.0 | 0.0 | 0.00 | 0.00 | 0.00 | 76 | 1017.5 |
| 20260504033746 | 6 | 41 | 0.0 | 0.0 | 0.00 | 0.00 | 0.00 | 77 | 1017.5 |
| 20260504033244 | 6 | 41 | 0.0 | 0.0 | 0.00 | 0.00 | 0.00 | 77 | 1017.4 |
| 20260504032740 | 6 | 41 | 0.0 | 0.0 | 0.00 | 0.00 | 0.00 | 76 | 1017.7 |
| 20260504032237 | 6 | 41 | 0.0 | 0.0 | 0.00 | 0.00 | 0.00 | 75 | 1017.5 |
| 20260504031734 | 6 | 41 | 0.0 | 0.0 | 0.00 | 0.00 | 0.00 | 75 | 1017.8 |
| 20260504031232 | 6 | 41 | 0.0 | 0.0 | 0.00 | 0.00 | 0.00 | 73 | 1017.7 |
| 20260504030727 | 6 | 41 | 0.0 | 0.0 | 0.00 | 0.00 | 0.00 | 73 | 1017.4 |
| 20260504030225 | 6 | 41 | 0.0 | 0.0 | 0.00 | 0.00 | 0.00 | 74 | 1017.5 |
| 20260504025721 | 6 | 41 | 0.0 | 0.0 | 0.00 | 0.00 | 0.00 | 72 | 1017.5 |
| 20260504025218 | 5 | 41 | 0.0 | 0.0 | 0.00 | 0.00 | 0.00 | 72 | 1017.8 |
| 20260504024715 | 5 | 41 | 0.0 | 0.0 | 0.00 | 0.00 | 0.00 | 71 | 1017.5 |
| 20260504024211 | 5 | 41 | 0.0 | 0.0 | 0.00 | 0.00 | 0.00 | 70 | 1017.7 |
| 20260504023708 | 6 | 41 | 0.0 | 0.0 | 0.00 | 0.00 | 0.00 | 69 | 1017.7 |
| 20260504023204 | 6 | 41 | 0.0 | 0.0 | 0.00 | 0.00 | 0.00 | 68 | 1017.5 |
| 20260504022701 | 6 | 41 | 0.0 | 0.0 | 0.00 | 0.00 | 0.00 | 68 | 1017.7 |
| 20260504022156 | 6 | 41 | 0.0 | 0.0 | 0.00 | 0.00 | 0.00 | 66 | 1017.5 |
| 20260504021655 | 6 | 41 | 0.0 | 0.0 | 0.00 | 0.00 | 0.00 | 67 | 1017.7 |
| 20260504021150 | 6 | 41 | 0.0 | 0.0 | 0.00 | 0.00 | 0.00 | 65 | 1017.4 |
| 20260504020648 | 6 | 41 | 0.0 | 0.0 | 0.00 | 0.00 | 0.00 | 64 | 1017.3 |
| 20260504020143 | 6 | 41 | 0.0 | 0.0 | 0.00 | 0.00 | 0.00 | 64 | 1017.4 |
| 20260504015641 | 7 | 41 | 0.0 | 0.0 | 0.00 | 0.00 | 0.00 | 62 | 1017.4 |
| 20260504015137 | 7 | 41 | 0.0 | 0.0 | 0.00 | 0.00 | 0.00 | 60 | 1017.2 |
| 20260504014632 | 7 | 41 | 0.0 | 0.0 | 0.00 | 0.00 | 0.00 | 60 | 1017.3 |
| 20260504014130 | 7 | 41 | 0.0 | 0.0 | 0.00 | 0.00 | 0.00 | 59 | 1017.1 |
| 20260504013628 | 8 | 41 | 0.0 | 0.0 | 0.00 | 0.00 | 0.00 | 60 | 1017.1 |
| 20260504013124 | 8 | 41 | 0.0 | 0.0 | 0.00 | 0.00 | 0.00 | 59 | 1017.1 |
| 20260504012621 | 8 | 41 | 0.0 | 0.0 | 0.00 | 0.00 | 0.00 | 60 | 1017.0 |
| 20260504012120 | 8 | 41 | 0.0 | 0.0 | 0.00 | 0.00 | 0.00 | 59 | 1017.1 |
| 20260504011616 | 8 | 41 | 0.0 | 0.0 | 0.00 | 0.00 | 0.00 | 54 | 1016.9 |
| 20260504011112 | 8 | 41 | 0.0 | 0.0 | 0.00 | 0.00 | 0.00 | 55 | 1017.2 |
| 20260504010608 | 9 | 41 | 0.0 | 0.0 | 0.00 | 0.00 | 0.00 | 55 | 1017.0 |
| 20260504010104 | 9 | 41 | 0.0 | 0.0 | 0.00 | 0.00 | 0.00 | 50 | 1017.0 |
| 20260504005601 | 10 | 41 | 0.0 | 0.0 | 0.00 | 0.00 | 0.00 | 53 | 1016.8 |
| 20260504005058 | 10 | 41 | 0.0 | 1.6 | 0.00 | 0.00 | 0.00 | 53 | 1016.7 |
| 20260504004556 | 10 | 41 | 0.0 | 0.0 | 0.00 | 0.00 | 0.00 | 50 | 1016.9 |
| 20260504004053 | 10 | 41 | 0.0 | 0.0 | 0.00 | 0.00 | 0.00 | 52 | 1016.8 |
| 20260504003549 | 10 | 41 | 1.6 | 1.6 | 0.00 | 0.00 | 0.00 | 50 | 1016.7 |
| 20260504003046 | 10 | 41 | 0.0 | 0.0 | 0.00 | 0.00 | 0.00 | 51 | 1016.6 |
| 20260504002542 | 10 | 41 | 0.0 | 0.0 | 0.00 | 0.00 | 0.00 | 50 | 1016.6 |
| 20260504002040 | 11 | 41 | 0.0 | 0.0 | 0.00 | 0.00 | 0.00 | 50 | 1016.4 |
| 20260504001538 | 11 | 41 | 0.0 | 0.0 | 0.00 | 0.00 | 0.00 | 50 | 1016.5 |
| 20260504001034 | 11 | 41 | 0.0 | 0.0 | 0.00 | 0.00 | 0.00 | 48 | 1016.5 |
| 20260504000531 | 12 | 41 | 0.0 | 1.6 | 0.00 | 0.00 | 0.00 | 46 | 1016.7 |
| 20260504000028 | 12 | 41 | 1.6 | 1.6 | 0.00 | 0.00 | 0.00 | 44 | 1016.6 |
| 20260503235527 | 12 | 41 | 1.6 | 1.6 | 0.00 | 0.00 | 0.00 | 43 | 1016.3 |
| 20260503235023 | 13 | 41 | 0.0 | 1.6 | 0.00 | 0.00 | 0.00 | 44 | 1016.4 |
| 20260503234521 | 13 | 41 | 1.6 | 1.6 | 0.00 | 0.00 | 0.00 | 42 | 1016.5 |
| 20260503234019 | 13 | 40 | 0.0 | 0.0 | 0.00 | 0.00 | 0.00 | 41 | 1016.5 |
| 20260503233515 | 14 | 40 | 0.0 | 0.0 | 0.00 | 0.00 | 0.00 | 39 | 1016.5 |
| 20260503233011 | 14 | 40 | 0.0 | 0.0 | 0.00 | 0.00 | 0.00 | 39 | 1016.4 |
| 20260503232508 | 15 | 40 | 0.0 | 0.0 | 0.00 | 0.00 | 0.00 | 36 | 1016.2 |
| 20260503232006 | 16 | 40 | 0.0 | 1.6 | 0.00 | 0.00 | 0.00 | 36 | 1016.1 |
| 20260503231504 | 16 | 39 | 0.0 | 1.6 | 0.00 | 0.00 | 0.00 | 30 | 1016.3 |
| 20260503231000 | 17 | 40 | 0.0 | 1.6 | 0.00 | 0.00 | 0.00 | 33 | 1016.3 |
| 20260503230456 | 17 | 40 | 0.0 | 3.2 | 0.00 | 0.00 | 0.00 | 30 | 1016.3 |
| 20260503225954 | 16 | 55 | 0.0 | 1.6 | 0.00 | 0.00 | 0.00 | 28 | 1016.3 |
| 20260503225451 | 17 | 55 | 0.0 | 0.0 | 0.00 | 0.00 | 0.00 | 28 | 1016.3 |
| 20260503224946 | 17 | 54 | 1.6 | 3.2 | 0.00 | 0.00 | 0.00 | 27 | 1016.2 |
| 20260503224443 | 17 | 66 | 0.0 | 3.2 | 0.00 | 0.00 | 0.00 | 27 | 1016.0 |
| 20260503223941 | 17 | 41 | 1.6 | 1.6 | 0.00 | 0.00 | 0.00 | 29 | 1016.2 |
| 20260503223439 | 17 | 20 | 3.2 | 3.2 | 0.00 | 0.00 | 0.00 | 26 | 1016.1 |
| 20260503222934 | 17 | 93 | 3.2 | 3.2 | 0.00 | 0.00 | 0.00 | 28 | 1016.2 |
| 20260503222433 | 18 | 148 | 0.0 | 1.6 | 0.00 | 0.00 | 0.00 | 25 | 1016.3 |
| 20260503221931 | 18 | 247 | 4.8 | 6.4 | 0.00 | 0.00 | 0.00 | 27 | 1016.2 |
| 20260503221429 | 17 | 30 | 0.0 | 4.8 | 0.00 | 0.00 | 0.00 | 29 | 1016.3 |
| 20260503220925 | 18 | 138 | 1.6 | 3.2 | 0.00 | 0.00 | 0.00 | 27 | 1016.4 |
| 20260503220421 | 18 | 256 | 0.0 | 1.6 | 0.00 | 0.00 | 0.00 | 31 | 1016.5 |
| 20260503215919 | 18 | 300 | 1.6 | 3.2 | 0.00 | 0.00 | 0.00 | 28 | 1016.3 |
| 20260503215416 | 18 | 74 | 1.6 | 4.8 | 0.00 | 0.00 | 0.00 | 27 | 1016.5 |
| 20260503214913 | 18 | 42 | 1.6 | 1.6 | 0.00 | 0.00 | 0.00 | 26 | 1016.3 |
| 20260503214410 | 18 | 48 | 3.2 | 3.2 | 0.00 | 0.00 | 0.00 | 25 | 1016.4 |
| 20260503213908 | 18 | 56 | 1.6 | 9.7 | 0.00 | 0.00 | 0.00 | 28 | 1016.4 |
| 20260503213406 | 18 | 283 | 1.6 | 6.4 | 0.00 | 0.00 | 0.00 | 27 | 1016.3 |
| 20260503212902 | 18 | 243 | 4.8 | 4.8 | 0.00 | 0.00 | 0.00 | 27 | 1016.5 |
| 20260503212400 | 18 | 240 | 11.3 | 12.9 | 0.00 | 0.00 | 0.00 | 28 | 1016.4 |
| 20260503211857 | 18 | 227 | 0.0 | 4.8 | 0.00 | 0.00 | 0.00 | 27 | 1016.5 |
| 20260503211354 | 18 | 248 | 1.6 | 6.4 | 0.00 | 0.00 | 0.00 | 30 | 1016.4 |
| 20260503210848 | 17 | 60 | 1.6 | 3.2 | 0.00 | 0.00 | 0.00 | 27 | 1016.6 |
| 20260503210346 | 18 | 274 | 3.2 | 6.4 | 0.00 | 0.00 | 0.00 | 26 | 1016.6 |
| 20260503205841 | 17 | 318 | 4.8 | 6.4 | 0.00 | 0.00 | 0.00 | 32 | 1016.6 |
| 20260503205338 | 17 | 332 | 1.6 | 11.3 | 0.00 | 0.00 | 0.00 | 30 | 1017.1 |
| 20260503204834 | 18 | 253 | 3.2 | 6.4 | 0.00 | 0.00 | 0.00 | 28 | 1016.4 |
| 20260503204332 | 18 | 334 | 1.6 | 4.8 | 0.00 | 0.00 | 0.00 | 31 | 1016.6 |
| 20260503203829 | 18 | 267 | 3.2 | 4.8 | 0.00 | 0.00 | 0.00 | 30 | 1016.4 |
| 20260503203326 | 17 | 35 | 0.0 | 1.6 | 0.00 | 0.00 | 0.00 | 32 | 1016.7 |
| 20260503202823 | 17 | 73 | 3.2 | 4.8 | 0.00 | 0.00 | 0.00 | 36 | 1016.8 |
| 20260503202321 | 17 | 240 | 9.7 | 20.9 | 0.00 | 0.00 | 0.00 | 31 | 1016.8 |
| 20260503201819 | 18 | 228 | 4.8 | 4.8 | 0.00 | 0.00 | 0.00 | 28 | 1016.8 |
| 20260503201316 | 18 | 262 | 4.8 | 4.8 | 0.00 | 0.00 | 0.00 | 27 | 1016.8 |
| 20260503200814 | 17 | 40 | 3.2 | 9.7 | 0.00 | 0.00 | 0.00 | 30 | 1016.9 |
| 20260503200309 | 18 | 89 | 1.6 | 11.3 | 0.00 | 0.00 | 0.00 | 28 | 1016.9 |
| 20260503195807 | 17 | 245 | 0.0 | 4.8 | 0.00 | 0.00 | 0.00 | 33 | 1017.3 |
| 20260503195304 | 17 | 243 | 9.7 | 17.7 | 0.00 | 0.00 | 0.00 | 31 | 1017.2 |
| 20260503194800 | 16 | 293 | 4.8 | 6.4 | 0.00 | 0.00 | 0.00 | 30 | 1017.3 |
| 20260503194256 | 17 | 71 | 6.4 | 9.7 | 0.00 | 0.00 | 0.00 | 30 | 1017.2 |
| 20260503193753 | 17 | 254 | 6.4 | 11.3 | 0.00 | 0.00 | 0.00 | 31 | 1017.4 |
| 20260503193249 | 16 | 205 | 6.4 | 9.7 | 0.00 | 0.00 | 0.00 | 31 | 1017.5 |
| 20260503192745 | 16 | 256 | 3.2 | 6.4 | 0.00 | 0.00 | 0.00 | 34 | 1017.8 |
| 20260503192239 | 16 | 288 | 9.7 | 12.9 | 0.00 | 0.00 | 0.00 | 34 | 1017.9 |
| 20260503191737 | 16 | 238 | 8.0 | 9.7 | 0.00 | 0.00 | 0.00 | 32 | 1017.9 |
| 20260503191229 | 17 | 253 | 9.7 | 14.5 | 0.00 | 0.00 | 0.00 | 29 | 1018.0 |
| 20260503190725 | 17 | 325 | 6.4 | 9.7 | 0.00 | 0.00 | 0.00 | 31 | 1018.1 |
| 20260503190222 | 17 | 63 | 3.2 | 9.7 | 0.00 | 0.00 | 0.00 | 33 | 1018.2 |
| 20260503185720 | 16 | 356 | 3.2 | 4.8 | 0.00 | 0.00 | 0.00 | 31 | 1018.4 |
| 20260503185214 | 15 | 53 | 3.2 | 4.8 | 0.00 | 0.00 | 0.00 | 34 | 1018.4 |
| 20260503184710 | 16 | 236 | 4.8 | 6.4 | 0.00 | 0.00 | 0.00 | 36 | 1018.4 |
| 20260503184206 | 16 | 245 | 6.4 | 11.3 | 0.00 | 0.00 | 0.00 | 32 | 1018.4 |
| 20260503183703 | 15 | 238 | 0.0 | 9.7 | 0.00 | 0.00 | 0.00 | 32 | 1018.5 |
| 20260503183200 | 15 | 243 | 6.4 | 20.9 | 0.00 | 0.00 | 0.00 | 37 | 1018.4 |
| 20260503182658 | 16 | 261 | 11.3 | 14.5 | 0.00 | 0.00 | 0.00 | 35 | 1018.5 |
| 20260503182156 | 15 | 286 | 4.8 | 6.4 | 0.00 | 0.00 | 0.00 | 31 | 1018.4 |
| 20260503181653 | 15 | 269 | 8.0 | 9.7 | 0.00 | 0.00 | 0.00 | 33 | 1018.6 |
| 20260503181149 | 15 | 106 | 9.7 | 12.9 | 0.00 | 0.00 | 0.00 | 31 | 1018.7 |
| 20260503180646 | 15 | 204 | 6.4 | 12.9 | 0.00 | 0.00 | 0.00 | 30 | 1018.8 |
| 20260503180145 | 15 | 275 | 8.0 | 11.3 | 0.00 | 0.00 | 0.00 | 30 | 1018.7 |
| 20260503175641 | 15 | 112 | 3.2 | 17.7 | 0.00 | 0.00 | 0.00 | 33 | 1018.8 |
| 20260503175138 | 15 | 225 | 1.6 | 11.3 | 0.00 | 0.00 | 0.00 | 34 | 1018.7 |
| 20260503174634 | 15 | 263 | 3.2 | 14.5 | 0.00 | 0.00 | 0.00 | 35 | 1018.7 |
| 20260503174132 | 15 | 339 | 3.2 | 6.4 | 0.00 | 0.00 | 0.00 | 34 | 1018.8 |
| 20260503173626 | 15 | 356 | 4.8 | 14.5 | 0.00 | 0.00 | 0.00 | 32 | 1018.6 |
| 20260503173123 | 15 | 264 | 8.0 | 12.9 | 0.00 | 0.00 | 0.00 | 35 | 1018.7 |
| 20260503172620 | 15 | 305 | 3.2 | 11.3 | 0.00 | 0.00 | 0.00 | 36 | 1018.8 |
| 20260503172117 | 15 | 58 | 1.6 | 6.4 | 0.00 | 0.00 | 0.00 | 36 | 1019.0 |
| 20260503171614 | 15 | 334 | 1.6 | 9.7 | 0.00 | 0.00 | 0.00 | 36 | 1019.1 |
| 20260503171111 | 14 | 64 | 6.4 | 12.9 | 0.00 | 0.00 | 0.00 | 38 | 1018.9 |
| 20260503170608 | 14 | 284 | 4.8 | 6.4 | 0.00 | 0.00 | 0.00 | 39 | 1019.0 |
| 20260503170104 | 14 | 210 | 6.4 | 11.3 | 0.00 | 0.00 | 0.00 | 36 | 1019.1 |
| 20260503151000 | 10 | 269 | 3.2 | 4.8 | 0.00 | 0.00 | 0.00 | 43 | 1020.2 |
| 20260503150456 | 10 | 253 | 4.8 | 11.3 | 0.00 | 0.00 | 0.00 | 45 | 1020.5 |
| 20260503131338 | 8 | 281 | 14.5 | 16.1 | 0.00 | 0.00 | 0.00 | 46 | 1020.2 |
| 20260503130836 | 8 | 257 | 9.7 | 12.9 | 0.00 | 0.00 | 0.00 | 47 | 1020.2 |
| 20260503130333 | 8 | 276 | 6.4 | 9.7 | 0.00 | 0.00 | 0.00 | 48 | 1020.1 |
| 20260503110732 | 4 | 247 | 1.6 | 3.2 | 0.00 | 0.00 | 0.00 | 68 | 1019.5 |
| 20260503110229 | 4 | 333 | 0.0 | 0.0 | 0.00 | 0.00 | 0.00 | 66 | 1019.4 |